{"data":{"norad_id":63168,"epoch":"2026-09-22T22:11:35.363904Z","epoch_age_seconds":101331,"freshness":"FRESH","line1":"1 63168U 25046K   26265.92471486  .00000082  00000+0  10886-3 0  9998","line2":"2 63168  88.9641 290.4090 0013651  35.8099 324.3965 13.51021127 85846","mean_motion":13.51021127,"eccentricity":0.0013651,"inclination_deg":88.9641,"raan_deg":290.409,"arg_perigee_deg":35.8099,"mean_anomaly_deg":324.3965,"bstar":0.00010886,"rev_number":8584,"period_min":106.58604600785,"perigee_km":1058.3385419426,"apogee_km":1078.6693610684,"semimajor_km":7446.6409515055,"source":"CELESTRAK","updated_at":"2026-09-23T09:00:21.848907Z"}}